QPF
0.00 0.00 0.00 0.00 0.00 0.00 0.00 0.00 0.00 0.00 0.00 0.00 0.00 0.00 0.00 0.00 0.00 0.01 0.00 0.00 0.00 0.00 0.01 0.01 0.01 0.00 0.00 0.00 0.00 0.00 0.00 0.00 0.00 0.00 0.00 0.01 0.01 0.01 0.01 0.01 0.01 0.01 0.01 0.01 0.01 0.01 0.01 0.01 0.01
0.00 0.00 0.00 0.00 0.00 0.00 0.00 0.00 0.00 0.00 0.00 0.00 0.00 0.00 0.00 0.00 0.00 0.00 0.00 0.00 0.00 0.00 0.01 0.01 0.01 0.01 0.00 0.00 0.00 0.00 0.00 0.00 0.00 0.00 0.00 0.01 0.01 0.01 0.01 0.01 0.01 0.01 0.01 0.01 0.01 0.01 0.01 0.01 0.02
0.00 0.00 0.00 0.00 0.00 0.00 0.00 0.00 0.00 0.00 0.00 0.00 0.00 0.00 0.00 0.00 0.00 0.00 0.00 0.00 0.00 0.00 0.00 0.01 0.01 0.00 0.00 0.00 0.00 0.00 0.00 0.00 0.00 0.00 0.00 0.01 0.01 0.01 0.01 0.01 0.01 0.01 0.01 0.01 0.01 0.01 0.01 0.01 0.01
0.00 0.00 0.00 0.00 0.00 0.00 0.00 0.00 0.00 0.00 0.00 0.00 0.00 0.00 0.00 0.00 0.00 0.00 0.01 0.01 0.00 0.00 0.01 0.01 0.01 0.00 0.00 0.00 0.00 0.00 0.00 0.00 0.00 0.00 0.01 0.01 0.01 0.01 0.01 0.01 0.01 0.01 0.01 0.01 0.01 0.01 0.02 0.02 0.02
0.00 0.00 0.00 0.00 0.00 0.00 0.00 0.00 0.00 0.00 0.00 0.00 0.00 0.00 0.00 0.00 0.00 0.00 0.02 0.02 0.01 0.01 0.01 0.01 0.00 0.00 0.00 0.00 0.00 0.00 0.00 0.00 0.00 0.00 0.01 0.01 0.01 0.01 0.01 0.01 0.01 0.01 0.01 0.01 0.01 0.01 0.01 0.02 0.03
0.00 0.00 0.00 0.00 0.00 0.00 0.00 0.00 0.00 0.00 0.00 0.00 0.00 0.00 0.00 0.00 0.00 0.00 0.01 0.01 0.00 0.01 0.01 0.01 0.00 0.00 0.00 0.00 0.01 0.01 0.01 0.01 0.00 0.01 0.01 0.01 0.01 0.01 0.01 0.00 0.01 0.00 0.01 0.01 0.00 0.01 0.01 0.02 0.03
0.00 0.00 0.00 0.00 0.00 0.00 0.00 0.00 0.00 0.00 0.00 0.00 0.00 0.00 0.00 0.00 0.00 0.00 0.00 0.00 0.00 0.00 0.00 0.01 0.01 0.01 0.01 0.01 0.01 0.01 0.01 0.01 0.01 0.01 0.01 0.01 0.01 0.01 0.01 0.01 0.01 0.00 0.01 0.01 0.01 0.01 0.01 0.01 0.02
0.00 0.00 0.00 0.00 0.00 0.00 0.00 0.00 0.00 0.00 0.00 0.00 0.00 0.00 0.00 0.00 0.00 0.00 0.00 0.00 0.01 0.01 0.04 0.05 0.04 0.02 0.01 0.01 0.01 0.01 0.01 0.01 0.01 0.01 0.01 0.01 0.01 0.01 0.01 0.01 0.01 0.01 0.01 0.01 0.01 0.02 0.01 0.01 0.02
0.00 0.00 0.00 0.00 0.00 0.00 0.00 0.00 0.00 0.00 0.00 0.00 0.00 0.00 0.00 0.01 0.01 0.01 0.01 0.01 0.03 0.05 0.12 0.12 0.07 0.04 0.02 0.02 0.01 0.02 0.02 0.01 0.01 0.02 0.02 0.01 0.02 0.02 0.02 0.01 0.01 0.01 0.02 0.01 0.01 0.01 0.00 0.01 0.02
0.00 0.00 0.00 0.00 0.00 0.00 0.00 0.00 0.00 0.00 0.00 0.00 0.00 0.00 0.01 0.01 0.01 0.01 0.01 0.01 0.01 0.04 0.09 0.14 0.09 0.06 0.04 0.03 0.03 0.04 0.03 0.02 0.02 0.03 0.03 0.03 0.03 0.03 0.02 0.01 0.01 0.02 0.01 0.01 0.01 0.00 0.00 0.00 0.01
0.00 0.00 0.00 0.00 0.00 0.00 0.00 0.00 0.00 0.00 0.00 0.00 0.00 0.00 0.00 0.01 0.02 0.01 0.02 0.03 0.02 0.04 0.04 0.05 0.05 0.06 0.04 0.04 0.04 0.03 0.03 0.03 0.03 0.03 0.04 0.04 0.02 0.02 0.02 0.02 0.02 0.03 0.02 0.01 0.01 0.00 0.00 0.00 0.01
0.00 0.00 0.00 0.00 0.00 0.00 0.00 0.00 0.00 0.00 0.00 0.00 0.00 0.00 0.00 0.01 0.03 0.04 0.07 0.10 0.05 0.07 0.08 0.05 0.05 0.05 0.04 0.04 0.03 0.02 0.02 0.02 0.03 0.04 0.04 0.05 0.04 0.03 0.03 0.03 0.03 0.03 0.03 0.02 0.01 0.01 0.01 0.01 0.01
0.00 0.00 0.00 0.00 0.00 0.00 0.00 0.00 0.00 0.00 0.00 0.00 0.00 0.00 0.00 0.03 0.07 0.11 0.15 0.12 0.09 0.12 0.15 0.11 0.08 0.07 0.06 0.05 0.04 0.02 0.02 0.01 0.03 0.05 0.04 0.05 0.06 0.05 0.04 0.02 0.02 0.02 0.02 0.02 0.01 0.01 0.02 0.03 0.02
0.00 0.00 0.00 0.00 0.00 0.00 0.00 0.00 0.00 0.00 0.00 0.00 0.00 0.00 0.01 0.04 0.10 0.14 0.15 0.13 0.15 0.21 0.23 0.23 0.22 0.19 0.13 0.07 0.05 0.04 0.03 0.03 0.03 0.04 0.04 0.05 0.06 0.07 0.06 0.04 0.04 0.03 0.02 0.02 0.01 0.01 0.01 0.02 0.02
0.00 0.00 0.00 0.00 0.00 0.00 0.00 0.00 0.00 0.00 0.00 0.00 0.00 0.00 0.01 0.02 0.05 0.10 0.11 0.12 0.17 0.20 0.25 0.27 0.35 0.35 0.20 0.11 0.08 0.07 0.06 0.04 0.05 0.04 0.04 0.06 0.05 0.06 0.06 0.06 0.05 0.03 0.02 0.02 0.02 0.01 0.02 0.02 0.02
0.00 0.00 0.00 0.00 0.00 0.00 0.00 0.00 0.00 0.00 0.00 0.00 0.00 0.00 0.01 0.02 0.06 0.09 0.10 0.12 0.16 0.20 0.21 0.19 0.18 0.27 0.24 0.13 0.09 0.07 0.07 0.07 0.07 0.06 0.06 0.05 0.04 0.04 0.04 0.05 0.04 0.02 0.02 0.03 0.03 0.02 0.01 0.02 0.03
0.00 0.00 0.00 0.00 0.00 0.00 0.00 0.00 0.00 0.00 0.00 0.00 0.00 0.00 0.01 0.03 0.05 0.07 0.09 0.10 0.15 0.20 0.18 0.16 0.15 0.17 0.20 0.15 0.12 0.13 0.11 0.09 0.09 0.08 0.07 0.05 0.05 0.05 0.06 0.05 0.04 0.02 0.02 0.03 0.02 0.02 0.01 0.03 0.03
0.00 0.00 0.00 0.00 0.00 0.00 0.00 0.00 0.00 0.00 0.00 0.00 0.00 0.00 0.01 0.02 0.04 0.07 0.09 0.12 0.14 0.21 0.22 0.17 0.19 0.20 0.20 0.16 0.15 0.14 0.11 0.10 0.08 0.09 0.09 0.07 0.06 0.06 0.05 0.04 0.03 0.02 0.03 0.04 0.03 0.03 0.02 0.02 0.02
0.00 0.00 0.00 0.00 0.00 0.00 0.00 0.00 0.00 0.00 0.00 0.01 0.01 0.00 0.00 0.02 0.04 0.07 0.10 0.15 0.14 0.18 0.19 0.16 0.17 0.19 0.17 0.14 0.13 0.13 0.10 0.09 0.08 0.08 0.06 0.07 0.07 0.06 0.05 0.04 0.03 0.02 0.03 0.03 0.03 0.02 0.01 0.01 0.01
0.00 0.00 0.00 0.00 0.00 0.00 0.00 0.00 0.00 0.00 0.00 0.01 0.00 0.00 0.01 0.01 0.03 0.06 0.08 0.14 0.11 0.10 0.12 0.12 0.12 0.16 0.13 0.12 0.14 0.13 0.11 0.09 0.08 0.08 0.06 0.05 0.05 0.04 0.04 0.04 0.03 0.03 0.03 0.03 0.02 0.02 0.01 0.01 0.01
0.00 0.00 0.00 0.00 0.00 0.00 0.00 0.00 0.00 0.00 0.00 0.01 0.00 0.00 0.00 0.01 0.02 0.03 0.03 0.05 0.06 0.06 0.09 0.09 0.10 0.12 0.15 0.14 0.14 0.14 0.12 0.09 0.07 0.07 0.05 0.04 0.03 0.02 0.02 0.02 0.02 0.02 0.02 0.02 0.01 0.01 0.01 0.01 0.00
0.00 0.00 0.00 0.00 0.00 0.00 0.00 0.00 0.00 0.00 0.00 0.00 0.00 0.00 0.00 0.01 0.01 0.02 0.02 0.02 0.03 0.05 0.08 0.09 0.11 0.12 0.14 0.15 0.12 0.11 0.08 0.07 0.07 0.07 0.06 0.05 0.04 0.03 0.02 0.01 0.02 0.02 0.02 0.01 0.00 0.00 0.00 0.00 0.00
0.00 0.00 0.00 0.00 0.00 0.00 0.00 0.00 0.00 0.00 0.00 0.00 0.00 0.00 0.00 0.01 0.02 0.02 0.01 0.01 0.03 0.03 0.05 0.08 0.11 0.13 0.14 0.15 0.15 0.15 0.11 0.09 0.09 0.07 0.05 0.04 0.03 0.02 0.01 0.01 0.01 0.01 0.01 0.01 0.01 0.00 0.00 0.00 0.00
0.00 0.00 0.00 0.00 0.00 0.00 0.00 0.00 0.00 0.00 0.00 0.00 0.00 0.00 0.00 0.00 0.01 0.01 0.01 0.01 0.02 0.02 0.03 0.05 0.07 0.11 0.12 0.16 0.18 0.17 0.13 0.10 0.07 0.06 0.04 0.03 0.03 0.02 0.01 0.01 0.01 0.01 0.01 0.01 0.01 0.00 0.00 0.00 0.00
0.00 0.00 0.00 0.00 0.00 0.00 0.00 0.00 0.00 0.00 0.00 0.00 0.00 0.00 0.00 0.00 0.01 0.01 0.01 0.01 0.01 0.02 0.04 0.04 0.06 0.08 0.10 0.13 0.15 0.16 0.13 0.10 0.08 0.06 0.04 0.02 0.02 0.02 0.02 0.01 0.01 0.01 0.01 0.00 0.00 0.00 0.00 0.00 0.00
0.00 0.00 0.00 0.00 0.00 0.00 0.00 0.00 0.00 0.00 0.00 0.00 0.00 0.00 0.00 0.00 0.00 0.01 0.01 0.01 0.01 0.02 0.04 0.04 0.06 0.07 0.07 0.09 0.11 0.12 0.11 0.08 0.06 0.05 0.03 0.02 0.01 0.02 0.01 0.01 0.01 0.01 0.00 0.00 0.00 0.00 0.00 0.00 0.00
0.00 0.00 0.00 0.00 0.00 0.00 0.00 0.00 0.00 0.00 0.00 0.00 0.00 0.00 0.00 0.00 0.00 0.00 0.00 0.01 0.01 0.02 0.04 0.04 0.05 0.05 0.05 0.08 0.09 0.09 0.08 0.07 0.06 0.04 0.03 0.02 0.02 0.02 0.01 0.01 0.01 0.01 0.01 0.01 0.01 0.01 0.00 0.00 0.00
0.00 0.00 0.00 0.00 0.00 0.00 0.00 0.00 0.00 0.00 0.00 0.00 0.00 0.00 0.00 0.00 0.00 0.00 0.00 0.01 0.01 0.02 0.04 0.03 0.04 0.04 0.04 0.06 0.07 0.06 0.06 0.06 0.06 0.06 0.04 0.04 0.04 0.03 0.02 0.01 0.01 0.02 0.02 0.01 0.01 0.01 0.01 0.00 0.01
0.00 0.00 0.00 0.00 0.00 0.00 0.00 0.00 0.00 0.00 0.00 0.00 0.00 0.00 0.00 0.00 0.00 0.00 0.00 0.00 0.00 0.01 0.02 0.02 0.03 0.03 0.03 0.04 0.04 0.05 0.05 0.05 0.05 0.05 0.05 0.06 0.05 0.04 0.02 0.02 0.02 0.02 0.02 0.02 0.01 0.01 0.01 0.00 0.00
0.00 0.00 0.00 0.00 0.00 0.00 0.00 0.00 0.00 0.00 0.00 0.00 0.00 0.00 0.00 0.00 0.00 0.00 0.00 0.00 0.00 0.00 0.00 0.01 0.01 0.01 0.02 0.03 0.03 0.04 0.05 0.03 0.03 0.03 0.04 0.04 0.03 0.03 0.02 0.02 0.02 0.01 0.02 0.02 0.01 0.01 0.01 0.01 0.01
MSLP
1010.20 1010.58 1011.00 1011.37 1011.59 1011.63 1011.49 1011.21 1010.86 1010.53 1010.28 1010.16 1010.15 1010.22 1010.31 1010.36 1010.34 1010.25 1010.12 1010.02 1010.04 1010.22 1010.59 1011.15 1011.82 1012.53 1013.17 1013.67 1014.01 1014.18 1014.23 1014.24 1014.28 1014.41 1014.64 1014.97 1015.35 1015.72 1016.03 1016.24 1016.34 1016.36 1016.33 1016.30 1016.31 1016.38 1016.50 1016.64 1016.78
1010.18 1010.63 1011.09 1011.45 1011.65 1011.63 1011.41 1011.03 1010.57 1010.12 1009.77 1009.55 1009.46 1009.47 1009.52 1009.56 1009.55 1009.49 1009.41 1009.38 1009.47 1009.74 1010.21 1010.86 1011.64 1012.44 1013.17 1013.77 1014.18 1014.42 1014.53 1014.58 1014.63 1014.75 1014.96 1015.26 1015.59 1015.93 1016.20 1016.39 1016.49 1016.51 1016.50 1016.50 1016.53 1016.62 1016.75 1016.90 1017.03
1010.23 1010.71 1011.17 1011.50 1011.65 1011.56 1011.25 1010.78 1010.23 1009.70 1009.27 1008.98 1008.84 1008.81 1008.85 1008.89 1008.90 1008.88 1008.86 1008.90 1009.07 1009.41 1009.94 1010.66 1011.50 1012.36 1013.16 1013.83 1014.31 1014.62 1014.79 1014.88 1014.96 1015.08 1015.28 1015.54 1015.84 1016.13 1016.38 1016.55 1016.65 1016.70 1016.72 1016.75 1016.82 1016.92 1017.06 1017.20 1017.31
1010.35 1010.81 1011.23 1011.50 1011.56 1011.39 1011.01 1010.47 1009.86 1009.29 1008.82 1008.51 1008.34 1008.31 1008.34 1008.41 1008.46 1008.49 1008.53 1008.64 1008.86 1009.26 1009.84 1010.59 1011.45 1012.34 1013.17 1013.87 1014.40 1014.76 1014.98 1015.11 1015.23 1015.36 1015.55 1015.78 1016.05 1016.31 1016.54 1016.71 1016.84 1016.92 1016.99 1017.07 1017.17 1017.29 1017.42 1017.54 1017.62
1010.50 1010.92 1011.25 1011.42 1011.38 1011.13 1010.68 1010.11 1009.49 1008.91 1008.45 1008.14 1007.99 1007.96 1008.02 1008.12 1008.21 1008.30 1008.41 1008.59 1008.87 1009.31 1009.91 1010.66 1011.51 1012.38 1013.20 1013.90 1014.45 1014.83 1015.09 1015.27 1015.41 1015.57 1015.76 1015.98 1016.23 1016.47 1016.69 1016.88 1017.04 1017.17 1017.29 1017.42 1017.55 1017.69 1017.81 1017.89 1017.92
1010.68 1010.99 1011.20 1011.25 1011.11 1010.78 1010.29 1009.70 1009.10 1008.55 1008.13 1007.86 1007.74 1007.75 1007.84 1007.97 1008.12 1008.27 1008.45 1008.69 1009.03 1009.50 1010.12 1010.85 1011.66 1012.48 1013.25 1013.91 1014.45 1014.85 1015.13 1015.34 1015.52 1015.70 1015.90 1016.12 1016.36 1016.60 1016.83 1017.03 1017.22 1017.39 1017.57 1017.74 1017.91 1018.05 1018.15 1018.20 1018.18
1010.83 1011.02 1011.08 1011.00 1010.75 1010.35 1009.83 1009.26 1008.70 1008.22 1007.85 1007.63 1007.55 1007.59 1007.71 1007.88 1008.07 1008.29 1008.54 1008.85 1009.25 1009.75 1010.37 1011.08 1011.84 1012.60 1013.30 1013.91 1014.41 1014.80 1015.10 1015.34 1015.55 1015.77 1015.99 1016.22 1016.46 1016.70 1016.93 1017.15 1017.36 1017.57 1017.78 1017.98 1018.16 1018.30 1018.38 1018.39 1018.34
1010.92 1010.96 1010.88 1010.66 1010.31 1009.86 1009.34 1008.80 1008.29 1007.88 1007.58 1007.41 1007.36 1007.42 1007.56 1007.75 1007.99 1008.26 1008.58 1008.96 1009.42 1009.97 1010.60 1011.29 1012.00 1012.69 1013.33 1013.88 1014.33 1014.71 1015.02 1015.28 1015.53 1015.78 1016.04 1016.29 1016.54 1016.78 1017.01 1017.23 1017.44 1017.66 1017.88 1018.09 1018.28 1018.41 1018.47 1018.46 1018.37
1010.92 1010.82 1010.60 1010.26 1009.83 1009.34 1008.82 1008.32 1007.88 1007.53 1007.29 1007.15 1007.13 1007.19 1007.33 1007.53 1007.79 1008.11 1008.49 1008.95 1009.49 1010.09 1010.75 1011.43 1012.11 1012.74 1013.31 1013.80 1014.22 1014.57 1014.89 1015.19 1015.48 1015.77 1016.07 1016.35 1016.61 1016.85 1017.07 1017.27 1017.47 1017.67 1017.88 1018.08 1018.25 1018.37 1018.41 1018.38 1018.29
1010.81 1010.59 1010.25 1009.82 1009.33 1008.82 1008.32 1007.87 1007.49 1007.19 1006.98 1006.87 1006.84 1006.88 1007.01 1007.20 1007.47 1007.83 1008.28 1008.81 1009.42 1010.09 1010.79 1011.48 1012.14 1012.74 1013.25 1013.70 1014.07 1014.41 1014.73 1015.06 1015.40 1015.74 1016.08 1016.40 1016.68 1016.91 1017.11 1017.29 1017.46 1017.62 1017.79 1017.96 1018.11 1018.21 1018.25 1018.22 1018.14
1010.61 1010.31 1009.88 1009.38 1008.86 1008.35 1007.88 1007.47 1007.14 1006.88 1006.69 1006.58 1006.53 1006.54 1006.63 1006.81 1007.08 1007.47 1007.96 1008.56 1009.24 1009.98 1010.73 1011.46 1012.11 1012.69 1013.17 1013.57 1013.92 1014.24 1014.57 1014.92 1015.30 1015.70 1016.08 1016.44 1016.74 1016.98 1017.17 1017.31 1017.43 1017.54 1017.66 1017.79 1017.91 1018.00 1018.04 1018.03 1017.98
1010.37 1010.00 1009.53 1009.00 1008.47 1007.97 1007.53 1007.16 1006.87 1006.64 1006.47 1006.34 1006.26 1006.24 1006.30 1006.45 1006.71 1007.11 1007.64 1008.29 1009.04 1009.84 1010.64 1011.39 1012.06 1012.62 1013.08 1013.46 1013.78 1014.09 1014.42 1014.79 1015.20 1015.64 1016.07 1016.47 1016.80 1017.06 1017.23 1017.34 1017.41 1017.48 1017.55 1017.63 1017.72 1017.81 1017.87 1017.90 1017.89
1010.14 1009.74 1009.25 1008.71 1008.19 1007.72 1007.32 1006.99 1006.73 1006.52 1006.35 1006.22 1006.12 1006.07 1006.10 1006.22 1006.47 1006.87 1007.42 1008.11 1008.90 1009.73 1010.57 1011.35 1012.03 1012.59 1013.03 1013.38 1013.68 1013.97 1014.30 1014.68 1015.12 1015.59 1016.06 1016.50 1016.87 1017.14 1017.31 1017.41 1017.45 1017.46 1017.49 1017.54 1017.61 1017.70 1017.79 1017.86 1017.92
1009.99 1009.58 1009.09 1008.57 1008.08 1007.64 1007.27 1006.97 1006.74 1006.56 1006.41 1006.28 1006.17 1006.11 1006.12 1006.22 1006.46 1006.85 1007.40 1008.09 1008.88 1009.73 1010.58 1011.37 1012.05 1012.60 1013.03 1013.37 1013.65 1013.92 1014.23 1014.61 1015.06 1015.55 1016.06 1016.53 1016.93 1017.23 1017.42 1017.51 1017.53 1017.52 1017.51 1017.53 1017.60 1017.70 1017.82 1017.95 1018.07
1009.95 1009.55 1009.08 1008.59 1008.12 1007.72 1007.38 1007.12 1006.91 1006.76 1006.63 1006.52 1006.43 1006.38 1006.39 1006.49 1006.71 1007.08 1007.60 1008.26 1009.03 1009.85 1010.68 1011.46 1012.13 1012.68 1013.10 1013.42 1013.69 1013.94 1014.24 1014.60 1015.05 1015.55 1016.07 1016.57 1017.00 1017.33 1017.54 1017.64 1017.66 1017.64 1017.62 1017.62 1017.69 1017.80 1017.96 1018.14 1018.33
1010.03 1009.65 1009.21 1008.75 1008.32 1007.94 1007.63 1007.39 1007.21 1007.08 1006.98 1006.91 1006.86 1006.85 1006.88 1006.99 1007.20 1007.53 1008.01 1008.61 1009.31 1010.08 1010.85 1011.59 1012.24 1012.78 1013.20 1013.52 1013.79 1014.04 1014.32 1014.67 1015.09 1015.59 1016.11 1016.63 1017.08 1017.44 1017.68 1017.80 1017.83 1017.81 1017.78 1017.78 1017.84 1017.97 1018.16 1018.38 1018.62
1010.21 1009.85 1009.44 1009.02 1008.61 1008.26 1007.96 1007.73 1007.57 1007.46 1007.40 1007.37 1007.38 1007.41 1007.49 1007.62 1007.82 1008.12 1008.53 1009.05 1009.66 1010.33 1011.03 1011.72 1012.34 1012.87 1013.30 1013.64 1013.92 1014.17 1014.46 1014.79 1015.20 1015.68 1016.19 1016.71 1017.17 1017.55 1017.81 1017.96 1018.01 1018.00 1017.97 1017.97 1018.03 1018.16 1018.36 1018.62 1018.90
1010.41 1010.09 1009.72 1009.34 1008.96 1008.62 1008.33 1008.09 1007.93 1007.83 1007.79 1007.81 1007.86 1007.96 1008.09 1008.25 1008.46 1008.72 1009.06 1009.48 1009.98 1010.54 1011.15 1011.77 1012.35 1012.88 1013.34 1013.71 1014.03 1014.33 1014.62 1014.96 1015.36 1015.81 1016.30 1016.80 1017.27 1017.65 1017.93 1018.10 1018.17 1018.17 1018.15 1018.15 1018.20 1018.33 1018.54 1018.81 1019.10
1010.56 1010.30 1009.99 1009.66 1009.31 1008.98 1008.67 1008.41 1008.21 1008.10 1008.06 1008.10 1008.21 1008.36 1008.55 1008.75 1008.97 1009.21 1009.49 1009.81 1010.20 1010.65 1011.16 1011.70 1012.26 1012.79 1013.28 1013.72 1014.10 1014.45 1014.78 1015.14 1015.53 1015.96 1016.43 1016.90 1017.35 1017.73 1018.03 1018.22 1018.31 1018.33 1018.31 1018.31 1018.35 1018.47 1018.66 1018.92 1019.22
1010.61 1010.42 1010.20 1009.93 1009.62 1009.29 1008.96 1008.65 1008.40 1008.23 1008.16 1008.20 1008.33 1008.53 1008.77 1009.02 1009.27 1009.50 1009.73 1009.98 1010.27 1010.62 1011.04 1011.52 1012.05 1012.59 1013.13 1013.63 1014.09 1014.51 1014.90 1015.28 1015.68 1016.10 1016.54 1016.98 1017.41 1017.78 1018.08 1018.28 1018.40 1018.44 1018.44 1018.44 1018.47 1018.57 1018.74 1018.98 1019.27
1010.51 1010.44 1010.32 1010.14 1009.89 1009.56 1009.19 1008.81 1008.47 1008.21 1008.08 1008.08 1008.21 1008.43 1008.72 1009.03 1009.32 1009.57 1009.79 1010.00 1010.22 1010.49 1010.84 1011.26 1011.77 1012.32 1012.90 1013.47 1014.01 1014.51 1014.96 1015.38 1015.79 1016.19 1016.60 1017.02 1017.41 1017.77 1018.07 1018.29 1018.43 1018.50 1018.53 1018.54 1018.58 1018.66 1018.81 1019.02 1019.27
1010.27 1010.34 1010.36 1010.29 1010.10 1009.79 1009.38 1008.91 1008.46 1008.08 1007.84 1007.77 1007.87 1008.11 1008.44 1008.80 1009.16 1009.46 1009.71 1009.92 1010.11 1010.34 1010.63 1011.02 1011.49 1012.06 1012.67 1013.29 1013.90 1014.46 1014.97 1015.42 1015.83 1016.23 1016.61 1016.99 1017.36 1017.70 1018.01 1018.25 1018.42 1018.53 1018.59 1018.63 1018.68 1018.75 1018.87 1019.05 1019.27
1009.94 1010.17 1010.35 1010.41 1010.29 1010.00 1009.54 1008.99 1008.41 1007.90 1007.54 1007.38 1007.42 1007.65 1008.01 1008.44 1008.88 1009.26 1009.58 1009.82 1010.03 1010.25 1010.52 1010.88 1011.34 1011.89 1012.51 1013.17 1013.81 1014.41 1014.95 1015.42 1015.84 1016.21 1016.57 1016.91 1017.25 1017.58 1017.89 1018.15 1018.37 1018.53 1018.64 1018.72 1018.78 1018.86 1018.97 1019.11 1019.29
1009.57 1009.97 1010.30 1010.49 1010.46 1010.19 1009.71 1009.08 1008.38 1007.74 1007.25 1006.98 1006.96 1007.17 1007.56 1008.05 1008.58 1009.07 1009.48 1009.80 1010.06 1010.31 1010.58 1010.92 1011.36 1011.89 1012.50 1013.15 1013.80 1014.41 1014.96 1015.43 1015.83 1016.17 1016.49 1016.80 1017.11 1017.43 1017.74 1018.03 1018.28 1018.50 1018.66 1018.79 1018.89 1018.98 1019.08 1019.20 1019.33
1009.19 1009.74 1010.22 1010.52 1010.58 1010.35 1009.86 1009.17 1008.39 1007.64 1007.04 1006.67 1006.58 1006.76 1007.17 1007.73 1008.35 1008.95 1009.47 1009.90 1010.24 1010.54 1010.83 1011.17 1011.59 1012.09 1012.67 1013.29 1013.91 1014.50 1015.02 1015.46 1015.83 1016.14 1016.41 1016.68 1016.96 1017.26 1017.57 1017.88 1018.18 1018.44 1018.67 1018.84 1018.98 1019.09 1019.18 1019.27 1019.37
1008.83 1009.49 1010.07 1010.48 1010.61 1010.43 1009.96 1009.25 1008.42 1007.60 1006.92 1006.48 1006.34 1006.49 1006.91 1007.52 1008.21 1008.91 1009.55 1010.09 1010.53 1010.89 1011.23 1011.58 1011.98 1012.45 1012.99 1013.56 1014.13 1014.67 1015.15 1015.55 1015.87 1016.13 1016.36 1016.58 1016.83 1017.10 1017.41 1017.73 1018.06 1018.36 1018.63 1018.85 1019.02 1019.14 1019.23 1019.31 1019.37
1008.48 1009.18 1009.82 1010.29 1010.48 1010.36 1009.93 1009.25 1008.42 1007.59 1006.88 1006.40 1006.22 1006.36 1006.78 1007.41 1008.16 1008.93 1009.66 1010.30 1010.83 1011.27 1011.66 1012.03 1012.43 1012.88 1013.38 1013.90 1014.41 1014.90 1015.32 1015.66 1015.93 1016.14 1016.33 1016.51 1016.72 1016.96 1017.25 1017.57 1017.91 1018.23 1018.53 1018.78 1018.97 1019.10 1019.19 1019.25 1019.28
1008.10 1008.78 1009.42 1009.90 1010.14 1010.07 1009.71 1009.09 1008.33 1007.54 1006.85 1006.38 1006.19 1006.32 1006.72 1007.35 1008.12 1008.93 1009.71 1010.42 1011.02 1011.53 1011.97 1012.38 1012.80 1013.24 1013.71 1014.19 1014.66 1015.09 1015.46 1015.76 1015.99 1016.16 1016.30 1016.44 1016.61 1016.82 1017.09 1017.39 1017.72 1018.05 1018.35 1018.60 1018.80 1018.94 1019.02 1019.06 1019.08
1007.68 1008.27 1008.85 1009.29 1009.54 1009.52 1009.24 1008.73 1008.08 1007.39 1006.78 1006.36 1006.19 1006.31 1006.69 1007.28 1008.02 1008.82 1009.61 1010.34 1010.98 1011.53 1012.03 1012.48 1012.93 1013.38 1013.85 1014.31 1014.76 1015.16 1015.50 1015.77 1015.96 1016.10 1016.21 1016.33 1016.46 1016.65 1016.88 1017.16 1017.46 1017.77 1018.06 1018.30 1018.49 1018.63 1018.71 1018.75 1018.76
1007.25 1007.69 1008.13 1008.50 1008.72 1008.74 1008.54 1008.16 1007.65 1007.11 1006.63 1006.29 1006.17 1006.28 1006.62 1007.15 1007.82 1008.55 1009.29 1010.00 1010.64 1011.22 1011.75 1012.25 1012.73 1013.22 1013.70 1014.18 1014.62 1015.02 1015.35 1015.61 1015.79 1015.92 1016.02 1016.11 1016.23 1016.39 1016.59 1016.84 1017.11 1017.39 1017.66 1017.88 1018.06 1018.19 1018.27 1018.32 1018.34
Thickness
5814 5818 5820 5814 5805 5801 5794 5802 5809 5807 5810 5816 5815 5810 5805 5800 5794 5785 5806 5814 5808 5801 5791 5780 5777 5775 5773 5772 5770 5769 5767 5765 5764 5762 5761 5760 5759 5758 5757 5756 5755 5754 5753 5752 5751 5750 5748 5747 5746
5821 5820 5815 5810 5800 5790 5792 5805 5807 5810 5816 5817 5815 5810 5805 5805 5807 5803 5805 5807 5804 5798 5790 5782 5775 5772 5771 5769 5768 5766 5765 5763 5761 5760 5759 5758 5757 5756 5755 5754 5753 5752 5751 5749 5748 5747 5746 5745 5744
5821 5819 5811 5808 5800 5795 5796 5809 5811 5817 5819 5815 5811 5812 5807 5804 5804 5803 5807 5805 5801 5795 5788 5779 5773 5770 5768 5766 5765 5763 5762 5760 5759 5758 5757 5756 5755 5754 5753 5752 5751 5750 5748 5747 5745 5744 5743 5742 5741
5819 5814 5810 5803 5798 5806 5809 5815 5818 5814 5815 5815 5811 5806 5809 5808 5808 5808 5806 5803 5797 5791 5785 5776 5770 5767 5765 5763 5762 5760 5759 5758 5757 5756 5754 5754 5753 5752 5751 5749 5748 5747 5746 5744 5742 5741 5740 5739 5738
5818 5811 5802 5800 5802 5810 5818 5821 5821 5814 5812 5813 5810 5803 5802 5806 5810 5807 5803 5799 5793 5788 5783 5774 5767 5764 5762 5760 5759 5758 5757 5756 5754 5753 5752 5751 5750 5749 5748 5747 5745 5744 5743 5741 5739 5738 5737 5736 5736
5811 5809 5799 5798 5802 5811 5820 5825 5822 5816 5814 5813 5809 5803 5800 5804 5803 5801 5799 5795 5792 5787 5781 5771 5764 5761 5759 5757 5756 5755 5754 5753 5752 5751 5750 5749 5748 5747 5745 5744 5743 5741 5740 5738 5737 5735 5734 5734 5733
5806 5804 5800 5801 5801 5807 5817 5827 5821 5816 5811 5813 5815 5803 5800 5799 5802 5799 5795 5792 5789 5785 5780 5770 5764 5759 5756 5755 5754 5753 5752 5751 5750 5749 5748 5747 5745 5744 5743 5741 5740 5739 5737 5736 5734 5733 5732 5731 5731
5814 5806 5801 5803 5801 5806 5821 5826 5826 5820 5815 5823 5818 5803 5799 5798 5800 5797 5791 5787 5784 5782 5778 5771 5766 5761 5757 5754 5751 5750 5749 5748 5748 5747 5746 5744 5743 5742 5740 5739 5737 5736 5735 5734 5732 5731 5730 5730 5729
5811 5799 5799 5804 5804 5811 5823 5820 5825 5829 5822 5817 5818 5813 5810 5804 5798 5790 5783 5779 5777 5775 5774 5770 5765 5760 5758 5755 5751 5749 5747 5746 5745 5745 5743 5743 5745 5743 5740 5738 5735 5734 5733 5732 5731 5729 5729 5729 5728
5804 5798 5805 5814 5817 5817 5820 5819 5822 5820 5813 5810 5810 5809 5806 5799 5792 5784 5778 5773 5770 5768 5767 5766 5763 5758 5757 5755 5750 5749 5748 5746 5747 5746 5744 5744 5743 5742 5741 5735 5734 5732 5731 5730 5729 5729 5728 5730 5732
5806 5802 5811 5817 5822 5822 5819 5822 5827 5817 5810 5813 5809 5804 5799 5794 5788 5782 5777 5774 5769 5766 5763 5762 5759 5755 5755 5753 5750 5749 5749 5746 5745 5744 5743 5742 5741 5740 5739 5737 5734 5732 5731 5732 5730 5731 5733 5733 5732
5804 5808 5812 5816 5824 5822 5820 5823 5822 5819 5818 5824 5821 5814 5800 5793 5787 5781 5775 5771 5766 5762 5759 5758 5755 5751 5750 5750 5750 5748 5748 5746 5745 5742 5741 5740 5740 5739 5738 5736 5735 5734 5733 5731 5732 5731 5730 5730 5730
5801 5807 5816 5821 5824 5824 5822 5821 5819 5819 5824 5825 5819 5810 5799 5794 5787 5781 5775 5769 5763 5756 5753 5751 5750 5747 5746 5745 5747 5747 5746 5746 5744 5741 5739 5738 5737 5737 5736 5734 5733 5734 5732 5731 5729 5730 5729 5728 5728
5809 5810 5814 5820 5822 5822 5817 5820 5817 5817 5822 5817 5811 5803 5798 5792 5784 5777 5769 5764 5759 5753 5750 5748 5745 5743 5741 5742 5743 5744 5745 5742 5743 5740 5738 5736 5736 5734 5733 5732 5731 5731 5731 5730 5729 5729 5728 5728 5728
5809 5803 5811 5818 5819 5821 5817 5810 5812 5817 5817 5809 5805 5799 5793 5787 5781 5773 5767 5762 5758 5752 5749 5745 5742 5740 5738 5739 5739 5740 5741 5741 5740 5738 5736 5734 5734 5732 5731 5731 5730 5730 5729 5727 5727 5727 5728 5728 5728
5804 5799 5798 5812 5816 5818 5808 5801 5811 5817 5811 5803 5799 5794 5787 5781 5777 5771 5765 5760 5756 5751 5746 5744 5741 5737 5736 5736 5736 5738 5739 5738 5738 5736 5734 5732 5732 5730 5729 5730 5730 5728 5729 5729 5728 5728 5729 5728 5728
5794 5791 5794 5803 5813 5812 5806 5800 5809 5814 5808 5799 5794 5790 5783 5776 5772 5768 5763 5757 5753 5749 5745 5742 5740 5737 5736 5735 5733 5734 5735 5735 5736 5735 5733 5731 5730 5729 5728 5729 5728 5727 5728 5729 5729 5728 5728 5727 5726
5787 5790 5790 5793 5806 5805 5801 5802 5807 5808 5803 5797 5791 5786 5780 5774 5770 5766 5761 5757 5752 5747 5743 5741 5738 5735 5734 5732 5731 5731 5732 5733 5733 5733 5731 5730 5729 5728 5728 5727 5726 5728 5728 5727 5726 5724 5724 5725 5725
5788 5783 5784 5793 5804 5799 5798 5799 5803 5804 5799 5793 5788 5783 5777 5773 5771 5765 5760 5756 5750 5745 5741 5739 5736 5734 5733 5731 5730 5729 5730 5730 5731 5731 5730 5729 5728 5727 5727 5729 5726 5727 5728 5726 5726 5726 5724 5725 5725
5781 5778 5783 5793 5800 5796 5794 5797 5803 5800 5795 5791 5786 5781 5776 5771 5767 5761 5757 5753 5749 5744 5741 5738 5737 5736 5734 5733 5731 5730 5730 5729 5730 5729 5728 5728 5727 5726 5727 5727 5727 5727 5725 5724 5725 5723 5726 5726 5725
5777 5778 5782 5783 5792 5797 5790 5793 5796 5797 5795 5791 5787 5783 5779 5771 5765 5760 5756 5753 5749 5745 5742 5741 5738 5736 5734 5733 5731 5728 5726 5727 5727 5726 5727 5727 5727 5727 5727 5726 5728 5726 5727 5726 5724 5724 5723 5724 5724
5772 5787 5784 5781 5779 5786 5784 5772 5791 5794 5789 5787 5785 5782 5777 5773 5767 5762 5757 5754 5750 5747 5744 5741 5739 5736 5734 5733 5731 5728 5726 5726 5728 5728 5728 5726 5726 5726 5725 5725 5725 5726 5728 5725 5725 5726 5725 5723 5724
5781 5787 5783 5782 5778 5777 5784 5773 5788 5793 5784 5786 5786 5782 5779 5774 5769 5763 5759 5755 5752 5749 5745 5742 5739 5737 5735 5733 5731 5728 5729 5729 5729 5728 5726 5725 5725 5725 5725 5725 5725 5724 5726 5725 5724 5723 5724 5725 5725
5785 5778 5778 5779 5779 5762 5776 5769 5776 5792 5788 5788 5787 5782 5778 5774 5769 5764 5760 5756 5752 5749 5745 5742 5738 5735 5734 5732 5731 5729 5730 5729 5727 5726 5725 5725 5725 5725 5725 5725 5724 5724 5725 5723 5723 5723 5723 5724 5723
5777 5765 5755 5754 5757 5763 5780 5769 5778 5795 5796 5793 5788 5783 5779 5774 5768 5762 5758 5754 5751 5747 5744 5741 5737 5734 5733 5731 5730 5730 5730 5729 5727 5727 5726 5727 5727 5727 5725 5726 5723 5724 5723 5723 5723 5722 5723 5722 5720
5773 5771 5752 5744 5752 5769 5774 5768 5787 5798 5797 5795 5791 5787 5779 5774 5769 5764 5760 5756 5751 5748 5745 5741 5737 5735 5734 5732 5731 5731 5730 5730 5730 5729 5730 5729 5730 5730 5727 5725 5723 5723 5722 5722 5721 5723 5722 5720 5719
5770 5770 5785 5769 5764 5757 5770 5780 5791 5794 5791 5789 5787 5783 5778 5775 5770 5766 5761 5758 5754 5750 5747 5743 5739 5735 5734 5733 5731 5730 5730 5731 5732 5730 5729 5730 5729 5729 5726 5725 5723 5722 5721 5721 5720 5722 5720 5719 5718
5782 5783 5770 5761 5744 5743 5760 5770 5778 5783 5785 5787 5784 5782 5780 5777 5773 5768 5764 5760 5757 5753 5748 5745 5741 5736 5734 5733 5732 5732 5731 5730 5730 5729 5728 5728 5728 5727 5726 5724 5723 5721 5720 5719 5718 5719 5718 5716 5716
5766 5767 5766 5767 5765 5748 5747 5767 5794 5791 5791 5788 5786 5785 5782 5779 5775 5770 5765 5762 5758 5754 5749 5745 5741 5737 5734 5733 5732 5732 5730 5730 5730 5728 5728 5727 5726 5725 5724 5723 5722 5721 5719 5718 5716 5717 5716 5714 5714
5775 5772 5767 5751 5751 5757 5754 5770 5798 5796 5796 5792 5788 5785 5783 5780 5776 5771 5766 5762 5757 5753 5750 5746 5743 5739 5737 5735 5733 5731 5730 5730 5729 5729 5729 5728 5726 5725 5723 5722 5721 5720 5719 5717 5715 5714 5714 5712 5711